Helicity
1 35 49 39 59 55 143 67 52 23 26 40 65 74 155 129 129 378 441 171 117 143 167 140 112 112 93 87 106 98 117 74 70 51 67 81 91 89 81 59 72 69 104 110 85
-1 15 25 -79 -6 30 53 54 34 26 39 60 88 57 116 124 251 410 271 176 88 101 150 165 124 116 95 86 107 124 125 135 184 176 59 80 82 93 80 76 68 72 83 95 97
15 7 43 56 -16 75 64 49 40 49 67 99 165 152 62 115 344 281 234 210 39 69 84 127 151 129 93 92 113 105 160 55 110 145 116 91 100 94 86 68 75 56 82 88 97
-1 18 52 50 52 60 44 38 40 59 88 123 180 145 80 148 283 216 288 356 -7 33 65 138 128 122 106 81 93 93 86 88 84 123 110 106 99 87 73 125 123 119 95 87 91
-1 8 14 27 36 40 47 61 70 76 105 146 178 110 104 210 165 249 367 190 11 34 70 157 149 102 111 68 86 76 70 85 94 109 119 94 85 104 69 94 95 104 104 94 89
6 10 22 32 26 44 66 74 78 91 103 138 174 127 167 171 162 324 235 159 78 18 57 101 108 86 51 85 124 57 60 66 88 85 101 97 76 96 66 98 91 97 99 95 100
16 27 40 37 49 57 54 65 85 93 102 133 170 140 148 140 215 250 173 201 64 38 50 61 85 98 42 46 46 33 70 58 75 89 87 98 75 74 122 96 90 94 105 106 115
36 42 42 56 67 56 58 74 88 77 76 108 185 190 200 133 186 202 97 62 65 -14 48 60 65 41 68 16 26 56 59 71 75 99 89 93 103 84 101 81 87 99 109 104 116
49 54 55 62 62 75 93 85 93 88 75 118 193 155 136 131 135 207 114 91 56 29 53 53 41 43 52 40 72 63 113 64 56 95 93 73 106 96 74 81 95 111 107 118 139
52 56 57 56 53 82 88 68 76 93 81 129 269 96 132 114 85 102 86 75 78 59 41 26 43 48 38 79 91 103 73 72 90 96 82 60 35 54 87 85 100 117 124 148 145
62 56 60 77 74 53 89 66 63 58 96 60 98 70 90 71 78 217 223 190 68 116 203 90 127 147 177 88 85 89 117 124 86 87 63 45 48 51 80 99 99 119 154 165 161
52 53 57 51 52 75 34 26 45 29 53 113 76 97 94 106 48 106 96 193 179 173 62 80 112 73 82 89 97 85 79 67 66 71 65 64 43 34 54 103 141 132 162 188 215
58 62 55 61 62 67 29 43 47 51 48 95 106 78 79 64 25 51 68 39 34 18 51 46 63 79 103 101 87 79 77 83 65 58 26 30 9 50 109 128 125 101 162 193 193
63 53 66 66 57 46 44 42 58 46 50 45 46 37 45 47 25 63 49 46 25 18 67 65 76 79 74 77 79 50 85 69 66 66 52 85 31 72 150 116 105 139 173 155 180
50 41 44 25 34 42 34 32 15 24 47 30 29 34 48 23 32 25 45 53 49 57 49 45 58 60 58 69 75 84 73 73 69 61 82 103 92 46 79 65 65 77 93 139 135
16 27 34 27 15 26 29 24 16 38 27 16 31 30 26 21 15 44 22 35 32 26 69 43 59 82 83 78 91 72 60 64 71 89 86 124 91 41 109 111 81 54 77 125 117
32 4 -5 16 14 17 20 15 24 19 19 24 10 26 8 26 9 30 13 -3 25 45 46 51 67 71 96 80 76 92 106 85 70 94 111 109 93 53 142 109 100 85 111 130 132
18 28 -10 -30 3 17 15 -7 1 22 11 10 16 9 -0 48 38 60 50 44 70 77 35 35 42 91 109 119 115 103 97 96 82 90 122 115 98 85 115 103 103 75 92 90 73
36 29 24 -2 2 11 38 8 20 -2 -12 -1 12 20 24 40 39 42 57 62 60 77 68 62 77 77 94 85 88 71 86 99 135 113 105 95 65 42 99 81 72 84 87 75 73
53 69 60 20 18 46 31 -4 -3 -17 -15 -14 3 6 13 25 39 38 49 43 54 64 85 79 74 67 73 70 75 91 100 111 111 107 71 59 67 107 116 100 83 78 64 59 91
57 80 80 34 48 35 15 22 9 -40 -31 -28 -19 -4 4 14 24 33 38 33 28 38 38 46 64 62 65 53 74 106 110 100 115 130 116 80 89 85 96 109 108 73 54 63 90
40 62 78 50 32 18 -7 -6 -33 -13 -2 -21 -21 -8 -6 12 7 7 23 35 55 51 58 70 71 53 82 127 105 87 90 96 119 114 149 174 143 120 134 127 135 94 36 31 71
-8 -16 45 29 -48 -45 -37 -49 -40 11 -39 -47 -55 -37 4 24 18 18 25 45 48 48 53 61 56 62 57 64 80 70 81 88 137 170 181 184 171 133 160 175 125 129 36 51 69
2 15 17 12 -6 -19 -18 -10 -6 4 -3 4 9 29 16 18 31 47 47 49 59 58 73 76 87 70 73 117 112 91 86 94 161 226 221 315 259 206 214 155 161 153 91 58 90
24 44 29 31 39 29 9 11 6 2 18 29 15 20 44 52 61 71 87 96 86 96 105 106 94 90 61 72 88 81 82 139 238 302 304 246 280 268 215 198 204 179 197 145 137
55 44 46 66 55 37 48 32 17 28 34 45 42 64 53 67 64 83 77 87 92 117 144 152 145 142 93 74 112 95 65 125 204 215 200 179 66 158 71 46 152 144 150 153 196
70 67 65 95 73 67 83 80 68 78 62 74 67 85 82 49 78 93 104 132 135 110 105 153 165 133 121 142 121 103 142 159 179 222 195 177 202 78 79 89 113 119 134 145 186
Wind_Speed
22 27 24 26 27 33 32 30 32 48 48 43 40 38 38 39 42 47 49 33 37 40 42 42 37 34 35 35 34 34 41 41 34 30 25 15 19 20 22 20 21 24 27 29 30
37 37 28 7 32 28 38 39 42 44 43 41 40 39 39 38 46 51 37 34 29 33 35 36 36 36 39 37 34 36 41 40 33 31 26 20 22 19 21 20 23 22 23 32 31
45 39 29 32 28 30 38 39 39 41 43 43 44 43 37 38 48 48 40 39 24 31 33 36 37 39 43 37 34 35 41 28 31 30 25 23 24 23 25 25 25 23 23 32 36
44 38 33 31 33 34 36 37 38 39 41 45 47 44 39 37 53 39 38 38 26 27 30 35 36 41 42 40 35 37 32 32 29 29 27 26 30 31 30 33 25 28 31 32 38
40 34 26 24 27 30 33 35 37 37 40 43 47 44 39 38 39 34 35 32 20 31 31 34 39 41 39 36 34 34 29 27 25 26 30 31 33 37 33 27 29 32 32 33 39
27 27 23 24 26 28 30 33 35 36 38 41 45 45 48 42 28 30 29 28 23 28 31 33 36 35 33 35 40 31 25 25 28 30 32 37 38 37 31 26 30 34 33 36 38
21 22 24 24 25 26 28 30 32 34 36 40 44 51 33 32 29 26 22 27 18 24 30 34 33 39 32 32 30 24 32 30 34 36 36 42 40 39 33 28 33 33 33 34 36
20 21 21 23 25 25 27 27 30 30 31 36 43 54 34 35 30 19 20 19 16 17 27 31 31 29 33 24 30 39 38 43 34 39 36 41 58 32 29 30 33 34 34 35 33
17 18 21 27 25 26 26 24 23 28 24 33 48 57 41 36 25 33 24 31 21 24 32 32 30 30 32 31 38 39 48 48 43 40 45 41 56 40 30 32 34 37 38 34 31
18 22 28 28 18 28 31 25 15 26 24 40 42 41 39 36 33 33 35 28 31 36 40 36 35 35 33 36 39 47 49 47 53 45 49 54 58 52 35 34 39 45 38 31 29
19 23 26 22 17 30 32 29 28 33 8 29 45 35 42 31 27 30 30 34 38 44 46 36 45 49 47 44 46 47 51 55 46 47 58 59 65 57 49 42 42 43 36 32 30
17 18 23 28 25 30 34 25 37 33 21 15 18 26 25 25 28 21 28 38 45 50 42 43 46 38 37 39 46 48 55 54 50 49 57 66 74 72 59 60 58 47 38 33 28
15 19 21 26 31 36 38 41 38 36 33 25 22 23 27 25 26 29 31 34 40 36 43 40 35 35 35 39 42 42 47 53 54 62 51 66 66 45 45 45 48 41 30 28 28
13 21 20 32 36 37 38 38 35 34 31 24 25 23 29 34 26 28 28 31 26 33 26 30 33 37 34 33 42 46 44 47 53 58 59 51 70 55 47 49 45 36 31 29 30
12 19 22 26 35 31 29 27 30 32 25 30 32 32 33 35 38 31 33 30 27 25 27 34 33 37 39 43 45 43 45 49 50 52 58 41 53 47 45 47 43 36 31 31 30
14 14 24 27 26 24 25 27 30 29 26 36 33 36 41 33 35 35 37 30 36 35 29 35 35 40 39 38 41 39 48 50 47 43 56 41 45 50 46 45 46 35 32 30 29
16 17 20 23 28 23 26 29 27 17 33 32 37 34 35 34 36 35 39 41 37 24 29 36 38 37 40 41 40 40 42 53 54 50 56 40 50 44 42 41 37 32 23 20 22
18 18 18 19 22 23 25 28 18 32 27 34 35 36 26 28 26 33 25 24 29 32 23 26 38 34 38 37 38 34 33 46 62 61 61 47 54 44 36 35 27 23 14 9 13
25 27 24 15 17 20 23 17 21 30 34 33 23 24 23 27 27 26 26 26 25 27 31 34 35 29 34 36 33 32 35 38 48 51 63 50 45 43 38 32 23 19 11 8 14
29 31 29 18 23 25 21 15 22 23 25 28 28 27 26 26 27 29 33 29 28 31 35 34 42 33 35 37 36 36 36 43 43 58 61 49 52 49 38 29 23 21 17 12 13
35 29 29 26 33 23 22 23 23 23 25 28 31 31 32 33 33 31 28 30 29 28 30 31 36 37 37 32 34 35 39 38 42 41 50 64 55 43 33 26 27 26 25 22 20
37 29 37 37 17 18 21 19 19 25 25 26 31 33 35 35 40 40 38 36 29 30 34 33 40 39 36 33 33 31 32 28 39 42 42 54 60 40 27 26 25 31 36 35 28
39 41 35 36 27 37 38 32 35 35 36 36 37 37 35 32 34 34 34 32 25 26 34 31 35 37 36 37 35 37 33 33 41 45 43 53 52 39 30 29 24 31 41 42 36
37 39 40 42 43 42 42 41 41 38 39 38 40 36 39 38 34 31 29 30 24 28 33 35 39 32 43 48 43 41 34 27 29 46 52 38 54 47 40 36 27 30 44 42 36
43 38 39 46 46 44 45 43 45 45 38 38 42 33 38 45 42 41 35 35 30 27 30 33 45 46 48 54 49 49 46 36 34 37 50 42 49 38 43 37 38 42 46 43 36
48 47 41 45 42 44 43 45 48 47 42 46 46 48 39 48 48 54 44 41 42 28 33 38 52 53 60 49 46 46 43 40 40 42 48 50 51 48 49 55 46 39 37 30 30
43 41 49 48 49 50 47 45 45 44 42 44 46 50 50 50 49 48 47 47 49 42 37 44 49 57 59 57 63 58 40 40 43 39 43 51 42 49 56 57 43 34 31 33 37
Wind_Direction
189 32 340 323 322 262 261 266 265 235 240 246 245 240 242 244 240 237 234 255 265 267 263 257 258 262 264 265 268 274 265 267 274 279 291 301 310 325 332 349 356 360 360 4 7
80 79 17 51 314 257 251 244 240 235 234 236 236 238 239 243 232 233 243 255 281 271 258 253 250 254 255 261 266 267 263 273 284 290 293 296 307 322 327 335 340 353 3 357 0
114 118 106 108 295 231 235 237 237 230 228 228 227 232 238 230 231 228 248 255 296 270 259 254 252 253 251 257 264 267 267 285 286 292 298 302 306 319 320 322 335 341 350 348 348
94 99 106 129 169 194 213 221 224 227 228 226 226 225 226 228 223 240 254 250 268 275 260 250 247 249 250 251 262 264 278 284 288 293 297 299 305 307 312 323 341 338 339 342 339
84 100 132 186 196 202 208 212 216 225 227 226 222 220 220 230 236 256 257 257 282 264 253 249 244 250 251 254 261 266 274 288 295 299 302 302 303 308 313 324 332 333 337 338 334
132 130 174 193 198 203 203 205 208 214 222 225 222 219 216 226 254 256 256 259 265 269 252 249 251 253 256 258 260 270 276 284 295 298 304 302 305 312 315 324 326 326 331 333 333
158 166 181 197 200 205 210 211 213 215 221 224 218 207 222 234 251 258 260 253 270 271 248 250 251 249 259 261 265 268 273 285 291 299 303 308 305 305 316 320 319 324 329 331 331
166 180 193 195 193 197 203 218 226 225 224 222 214 202 221 225 234 256 256 259 291 310 263 249 251 259 265 265 269 266 276 278 294 300 308 308 298 315 320 317 317 320 323 325 328
177 186 185 169 179 178 201 229 250 222 233 219 194 191 206 218 241 243 269 244 265 279 262 264 268 259 261 268 270 272 276 279 291 300 303 303 299 314 316 315 316 315 316 319 325
167 166 158 160 195 169 168 184 200 191 225 195 183 189 209 225 246 252 256 256 252 255 245 251 257 260 266 268 271 276 279 286 286 300 299 298 298 306 310 310 309 310 311 315 319
163 164 166 180 200 171 166 188 190 167 214 200 190 201 203 243 253 256 247 245 244 251 247 268 260 259 266 272 274 284 285 285 297 306 301 299 298 305 309 307 305 305 307 307 311
167 177 174 157 157 163 140 187 157 172 156 187 207 191 209 243 228 253 246 224 232 236 249 253 257 268 278 286 280 286 284 291 300 307 305 300 299 301 305 304 302 302 301 302 306
174 168 173 159 153 135 143 144 151 156 162 165 192 207 210 209 214 222 223 227 226 248 245 256 268 276 287 289 294 296 294 293 298 303 311 308 308 314 319 320 319 314 302 303 304
207 168 165 152 142 137 138 144 162 159 165 178 185 204 200 188 219 215 231 239 260 247 268 277 279 275 291 301 294 291 301 305 308 311 307 320 307 315 319 319 320 319 312 306 307
215 180 161 158 147 154 165 180 172 176 186 178 173 186 186 184 181 200 202 244 262 275 284 280 284 280 282 283 288 301 306 309 312 313 314 320 315 325 328 325 323 317 312 308 308
215 222 181 167 166 187 200 193 182 180 185 167 181 178 169 197 199 210 213 238 229 245 274 272 279 279 289 300 304 311 309 312 316 321 309 325 324 323 330 333 332 324 317 311 308
220 237 198 182 162 198 199 176 171 231 174 189 173 190 187 200 197 213 211 214 239 304 293 288 292 298 298 303 311 315 319 308 309 311 310 331 322 321 331 337 346 344 339 331 322
166 184 187 205 200 203 186 178 270 168 196 191 195 177 75 250 271 256 302 323 308 300 334 322 307 311 312 312 316 321 325 312 304 308 313 325 317 329 341 349 1 5 18 22 347
131 131 149 191 210 203 190 273 243 171 164 173 225 10 359 324 332 336 337 330 339 332 315 316 316 328 321 317 321 327 319 325 317 318 312 319 324 325 335 345 2 15 29 21 348
126 122 119 143 141 157 177 228 218 230 230 231 333 319 338 328 332 324 315 333 333 321 311 322 310 320 318 318 319 316 324 320 320 314 312 318 318 319 334 347 359 1 3 4 354
103 126 113 118 118 146 154 164 192 254 274 288 305 318 314 319 314 324 332 330 328 329 327 323 318 320 321 317 318 321 317 318 320 319 316 308 316 333 336 346 351 353 349 342 335
87 123 81 89 153 171 161 186 234 173 190 250 298 315 308 317 289 293 307 315 332 328 323 322 317 317 323 326 324 322 324 325 317 319 318 315 316 332 333 338 346 345 341 337 331
45 31 72 74 309 341 359 321 347 17 336 314 301 303 326 337 333 325 327 335 345 339 328 332 322 326 327 323 322 316 318 315 315 317 312 313 322 335 330 321 323 331 333 332 328
17 359 7 12 0 341 348 348 350 353 344 341 330 339 328 325 326 337 336 334 344 334 329 327 318 318 315 318 321 318 316 309 306 311 309 298 310 315 316 309 304 312 324 325 323
344 350 354 336 339 344 340 339 337 337 349 346 333 339 331 321 323 320 324 325 327 328 326 322 314 313 311 310 310 308 308 303 283 285 301 297 305 289 308 297 294 300 313 315 316
324 326 336 334 339 337 337 333 329 331 337 333 329 326 325 314 311 310 316 316 317 321 316 315 311 312 309 311 309 302 300 293 281 279 282 283 287 299 305 307 299 303 308 307 311
336 337 321 321 321 322 326 329 329 332 332 330 327 323 319 315 314 312 311 311 310 311 309 310 312 313 310 313 312 306 285 283 294 292 296 296 292 314 315 318 316 309 305 307 310